Volver al catálogo

STARLINK-11158

ActivoComunicacionesVLEO
NORAD 60403·PAYLOAD·🇺🇸 United States

Lanzado Aug 10, 2024 desde Cape Canaveral Space Force Station

Loading…

Próximos Pases (próximas 24 horas)

TLE

ActualizadoSource: CelesTrak SupGP

Época: Sep 15, 2026, 03:14 UTC

1 60403C 24141F   26258.13520833 -.00078046  00000+0 -64243-3 0  2589
2 60403  53.1574 232.7153 0001193  84.9879 239.7928 15.69765631    12

Sigue STARLINK-11158 en tiempo real con AllMySat

Download on the App Store